Regional Weather Roundup
Issued by NWS Albany, NY

Home | Current Version | Previous Version | Text Only | Print | Product List | Glossary On
Versions: 1 2 3 4 5 6 7 8 9 10 11 12 13 14 15 16 17 18 19 20 21 22 23 24 25 26 27
000
ASUS41 KALY 290810
RWRALY

NEW YORK STATE HOURLY WEATHER ROUNDUP
NATIONAL WEATHER SERVICE ALBANY NY
400 AM EDT SUN MAY 29 2016

NOTE: "FAIR" INDICATES FEW OR NO CLOUDS BELOW 12,000 FEET WITH NO
SIGNIFICANT WEATHER AND/OR NO OBSTRUCTIONS TO VISIBILITY.

NYZ032-033-038>043-046>054-057>066-NYZ062>081-082-084-290900-
EAST


CITY           SKY/WX    TMP DP  RH WIND       PRES   REMARKS
ALBANY         CLEAR     71  65  81 CALM      30.09S
GLENS FALLS    FOG       63  61  93 CALM      30.09S VSB 3/4
POUGHKEEPSIE   PTCLDY    71  66  84 CALM      30.09F
NEWBURGH       PTCLDY    70  68  94 CALM      30.12F
MONTGOMERY     CLEAR     67  66  97 S3        30.11F FOG
WHITE PLAINS   CLEAR     71  61  70 CALM      30.12F
ISLIP          CLEAR     66  56  70 SW6       30.13S
NEW YORK CITY  CLEAR     76  59  55 SW6       30.11F
CENTRAL PARK   CLEAR     74  55  51 W3        30.15F
$$

NYZ005>009-017-018-044>046-055-056-290900-
CENTRAL


CITY           SKY/WX    TMP DP  RH WIND       PRES   REMARKS
FULTON         CLOUDY    72  67  84 SE3       30.06F
SYRACUSE       CLOUDY    70  65  84 E3        30.05F
ROME           CLOUDY    66  63  90 SE6       30.09S
ELMIRA         CLOUDY    67  64  90 CALM      30.10F
BINGHAMTON     CLOUDY    71  65  81 S3        30.14S
MONTICELLO     CLEAR     63  61  94 N3        30.17S
$$

NYZ026>034-041>043-087-290900-
NORTH


CITY           SKY/WX    TMP DP  RH WIND       PRES   REMARKS
WATERTOWN      CLOUDY    65  62  90 E3        30.05S
FORT DRUM      NOT AVBL
MASSENA        CLEAR     63  55  75 NE6       30.08S
SARANAC LAKE   MOCLDY    52  49  89 CALM      30.13S FOG
PLATTSBURGH    CLEAR     60  57  89 NW3       30.07S
$$

NYZ001>004-010>016-019>021-085-290900-
WEST


CITY           SKY/WX    TMP DP  RH WIND       PRES   REMARKS
NIAGARA FALLS  PTCLDY    72  64  76 S7        30.05F
BUFFALO        CLOUDY    71  64  78 SW6       30.06F
DUNKIRK        CLOUDY    66  63  90 CALM      30.08S
JAMESTOWN      MOCLDY    64  61  88 S3        30.13S
WELLSVILLE     PTCLDY    66  63  90 CALM      30.16F
ROCHESTER      CLOUDY    73  66  78 SW6       30.06S
PENN YAN       PTCLDY    69  64  84 SW5       30.09F
$$

             KEY
       WCI = WIND CHILL INDEX
       VSB = VISIBILITY
       HX  = HEAT INDEX
$$




USA.gov is the U.S. government's official web portal to all federal, state and local government web resources and services.